| time (UTC) | temp F | wind direction | speed MPH | gust MPH | rain 1hr in | rain 24hr in | rain mn in | humidity % | barometer mb |
| 20260508213013 | 78 | 13 | 5.0 | 22.0 | 0.00 | 0.00 | 0.00 | 13 | 1016.7 |
| 20260508211516 | 79 | 65 | 9.0 | 16.0 | 0.00 | 0.00 | 0.00 | 13 | 1016.7 |
| 20260508210007 | 77 | 188 | 0.0 | 20.0 | 0.00 | 0.00 | 0.00 | 14 | 1016.8 |
| 20260508204507 | 78 | 77 | 14.0 | 21.0 | 0.00 | 0.00 | 0.00 | 14 | 1017.0 |
| 20260508203022 | 78 | 56 | 15.0 | 22.0 | 0.00 | 0.00 | 0.00 | 14 | 1017.2 |
| 20260508201522 | 78 | 23 | 6.0 | 20.0 | 0.00 | 0.00 | 0.00 | 14 | 1017.3 |
| 20260508200022 | 78 | 60 | 13.0 | 18.0 | 0.00 | 0.00 | 0.00 | 14 | 1017.3 |
| 20260508194514 | 78 | 5 | 2.0 | 18.0 | 0.00 | 0.00 | 0.00 | 14 | 1017.4 |
| 20260508193012 | 77 | 150 | 8.0 | 20.0 | 0.00 | 0.00 | 0.00 | 15 | 1017.5 |
| 20260508191516 | 77 | 152 | 8.0 | 19.0 | 0.00 | 0.00 | 0.00 | 14 | 1017.6 |
| 20260508190032 | 76 | 63 | 7.0 | 17.0 | 0.00 | 0.00 | 0.00 | 15 | 1017.8 |
| 20260508184520 | 75 | 65 | 4.0 | 19.0 | 0.00 | 0.00 | 0.00 | 16 | 1017.8 |
| 20260508183018 | 75 | 56 | 8.0 | 21.0 | 0.00 | 0.00 | 0.00 | 16 | 1018.2 |
| 20260508181517 | 75 | 54 | 10.0 | 16.0 | 0.00 | 0.00 | 0.00 | 17 | 1018.5 |
| 20260508180012 | 74 | 335 | 7.0 | 20.0 | 0.00 | 0.00 | 0.00 | 17 | 1018.8 |
| 20260508174531 | 73 | 77 | 16.0 | 27.0 | 0.00 | 0.00 | 0.00 | 18 | 1019.1 |
| 20260508173027 | 73 | 70 | 2.0 | 18.0 | 0.00 | 0.00 | 0.00 | 18 | 1019.3 |
| 20260508171526 | 71 | 48 | 3.0 | 15.0 | 0.00 | 0.00 | 0.00 | 19 | 1019.5 |
| 20260508170005 | 73 | 32 | 8.0 | 18.0 | 0.00 | 0.00 | 0.00 | 19 | 1019.6 |
| 20260508164503 | 71 | 25 | 8.0 | 17.0 | 0.00 | 0.00 | 0.00 | 20 | 1019.6 |
| 20260508163005 | 70 | 51 | 5.0 | 15.0 | 0.00 | 0.00 | 0.00 | 20 | 1019.6 |
| 20260508161503 | 69 | 92 | 1.0 | 15.0 | 0.00 | 0.00 | 0.00 | 20 | 1019.7 |
| 20260508160004 | 70 | 170 | 0.0 | 7.0 | 0.00 | 0.00 | 0.00 | 20 | 1019.9 |
| 20260508154505 | 68 | 226 | 3.0 | 8.0 | 0.00 | 0.00 | 0.00 | 22 | 1019.8 |
| 20260508153004 | 69 | 201 | 2.0 | 4.0 | 0.00 | 0.00 | 0.00 | 24 | 1019.8 |
| 20260508151504 | 67 | 120 | 0.0 | 1.0 | 0.00 | 0.00 | 0.00 | 26 | 1019.9 |
| 20260508150005 | 65 | 337 | 0.0 | 5.0 | 0.00 | 0.00 | 0.00 | 28 | 1020.0 |
| 20260508144504 | 64 | 44 | 3.0 | 6.0 | 0.00 | 0.00 | 0.00 | 29 | 1019.9 |
| 20260508143005 | 62 | 47 | 0.0 | 5.0 | 0.00 | 0.00 | 0.00 | 30 | 1020.0 |
| 20260508141506 | 62 | 354 | 0.0 | 5.0 | 0.00 | 0.00 | 0.00 | 31 | 1020.0 |
| 20260508140007 | 60 | 204 | 0.0 | 2.0 | 0.00 | 0.00 | 0.00 | 32 | 1020.0 |
| 20260508134507 | 59 | 162 | 0.0 | 0.0 | 0.00 | 0.00 | 0.00 | 33 | 1019.9 |
| 20260508133013 | 57 | 168 | 0.0 | 0.0 | 0.00 | 0.00 | 0.00 | 34 | 1019.9 |
| 20260508131508 | 55 | 176 | 0.0 | 1.0 | 0.00 | 0.00 | 0.00 | 36 | 1019.7 |
| 20260508130007 | 51 | 153 | 0.0 | 0.0 | 0.00 | 0.00 | 0.00 | 39 | 1019.6 |
| 20260508124509 | 48 | 140 | 0.0 | 3.0 | 0.00 | 0.00 | 0.00 | 40 | 1019.2 |
| 20260508123009 | 46 | 112 | 1.0 | 5.0 | 0.00 | 0.00 | 0.00 | 41 | 1019.0 |
| 20260508121513 | 47 | 110 | 0.0 | 1.0 | 0.00 | 0.00 | 0.00 | 42 | 1018.7 |
| 20260508120013 | 47 | 77 | 0.0 | 0.0 | 0.00 | 0.00 | 0.00 | 39 | 1018.6 |
| 20260508114517 | 49 | 102 | 2.0 | 4.0 | 0.00 | 0.00 | 0.00 | 37 | 1018.4 |
| 20260508113016 | 50 | 98 | 2.0 | 4.0 | 0.00 | 0.00 | 0.00 | 36 | 1018.4 |
| 20260508111516 | 52 | 100 | 0.0 | 0.0 | 0.00 | 0.00 | 0.00 | 35 | 1018.5 |
| 20260508110008 | 52 | 91 | 0.0 | 1.0 | 0.00 | 0.00 | 0.00 | 35 | 1018.6 |
| 20260508104513 | 52 | 59 | 1.0 | 2.0 | 0.00 | 0.00 | 0.00 | 35 | 1018.4 |
| 20260508103009 | 50 | 68 | 2.0 | 4.0 | 0.00 | 0.00 | 0.00 | 36 | 1018.4 |
| 20260508101510 | 50 | 82 | 0.0 | 3.0 | 0.00 | 0.00 | 0.00 | 38 | 1018.3 |
| 20260508100008 | 50 | 68 | 3.0 | 5.0 | 0.00 | 0.00 | 0.00 | 37 | 1018.3 |
| 20260508094511 | 51 | 94 | 3.0 | 5.0 | 0.00 | 0.00 | 0.00 | 36 | 1018.2 |
| 20260508093016 | 51 | 77 | 2.0 | 3.0 | 0.00 | 0.00 | 0.00 | 36 | 1018.3 |
| 20260508091519 | 53 | 92 | 1.0 | 4.0 | 0.00 | 0.00 | 0.00 | 36 | 1018.3 |
| 20260508090020 | 52 | 82 | 0.0 | 5.0 | 0.00 | 0.00 | 0.00 | 37 | 1018.5 |
| 20260508084512 | 51 | 78 | 1.0 | 4.0 | 0.00 | 0.00 | 0.00 | 38 | 1018.5 |
| 20260508083012 | 51 | 62 | 1.0 | 4.0 | 0.00 | 0.00 | 0.00 | 38 | 1018.5 |
| 20260508081514 | 51 | 46 | 0.0 | 3.0 | 0.00 | 0.00 | 0.00 | 39 | 1018.6 |
| 20260508080019 | 51 | 61 | 2.0 | 4.0 | 0.00 | 0.00 | 0.00 | 40 | 1018.8 |
| 20260508074520 | 53 | 64 | 2.0 | 3.0 | 0.00 | 0.00 | 0.00 | 39 | 1019.0 |
| 20260508073015 | 53 | 58 | 0.0 | 2.0 | 0.00 | 0.00 | 0.00 | 42 | 1019.1 |
| 20260508071523 | 52 | 68 | 0.0 | 2.0 | 0.00 | 0.00 | 0.00 | 45 | 1019.2 |
| 20260508070017 | 52 | 70 | 2.0 | 5.0 | 0.00 | 0.00 | 0.00 | 45 | 1019.3 |
| 20260508064520 | 53 | 67 | 1.0 | 5.0 | 0.00 | 0.00 | 0.00 | 43 | 1019.4 |
| 20260508063021 | 53 | 66 | 4.0 | 8.0 | 0.00 | 0.00 | 0.00 | 42 | 1019.4 |
| 20260508061522 | 53 | 50 | 5.0 | 9.0 | 0.00 | 0.00 | 0.00 | 43 | 1019.3 |
| 20260508060022 | 53 | 58 | 5.0 | 9.0 | 0.00 | 0.00 | 0.00 | 44 | 1019.3 |
| 20260508054522 | 54 | 62 | 3.0 | 10.0 | 0.00 | 0.00 | 0.00 | 40 | 1019.3 |
| 20260508053019 | 54 | 51 | 6.0 | 9.0 | 0.00 | 0.00 | 0.00 | 40 | 1019.4 |
| 20260508051526 | 54 | 51 | 6.0 | 10.0 | 0.00 | 0.00 | 0.00 | 44 | 1019.4 |
| 20260508050024 | 54 | 32 | 5.0 | 10.0 | 0.00 | 0.00 | 0.00 | 42 | 1019.4 |
| 20260508044523 | 55 | 46 | 5.0 | 9.0 | 0.00 | 0.00 | 0.00 | 43 | 1019.4 |
| 20260508043018 | 55 | 43 | 7.0 | 11.0 | 0.00 | 0.00 | 0.00 | 42 | 1019.3 |
| 20260508041513 | 55 | 34 | 3.0 | 5.0 | 0.00 | 0.00 | 0.00 | 40 | 1019.3 |
| 20260508040012 | 55 | 51 | 1.0 | 7.0 | 0.00 | 0.00 | 0.00 | 41 | 1019.2 |
| 20260508034506 | 54 | 43 | 3.0 | 6.0 | 0.00 | 0.00 | 0.00 | 40 | 1019.3 |
| 20260508033022 | 58 | 44 | 4.0 | 11.0 | 0.00 | 0.00 | 0.00 | 37 | 1019.3 |
| 20260508031520 | 58 | 84 | 1.0 | 5.0 | 0.00 | 0.00 | 0.00 | 38 | 1019.2 |
| 20260508030020 | 57 | 46 | 2.0 | 3.0 | 0.00 | 0.00 | 0.00 | 36 | 1019.1 |
| 20260508024516 | 59 | 61 | 2.0 | 5.0 | 0.00 | 0.00 | 0.00 | 35 | 1018.9 |
| 20260508023010 | 61 | 72 | 0.0 | 8.0 | 0.00 | 0.00 | 0.00 | 34 | 1018.7 |
| 20260508021520 | 60 | 13 | 1.0 | 6.0 | 0.00 | 0.00 | 0.00 | 33 | 1018.5 |
| 20260508020023 | 62 | 16 | 0.0 | 0.0 | 0.00 | 0.00 | 0.00 | 20 | 1018.2 |
| 20260508014524 | 66 | 49 | 0.0 | 1.0 | 0.00 | 0.00 | 0.00 | 18 | 1018.2 |
| 20260508013034 | 68 | 57 | 0.0 | 5.0 | 0.00 | 0.00 | 0.00 | 16 | 1018.1 |
| 20260508011516 | 69 | 57 | 0.0 | 3.0 | 0.00 | 0.00 | 0.00 | 15 | 1017.9 |
| 20260508010016 | 70 | 39 | 0.0 | 3.0 | 0.00 | 0.00 | 0.00 | 14 | 1017.8 |
| 20260508004512 | 71 | 77 | 0.0 | 3.0 | 0.00 | 0.00 | 0.00 | 14 | 1017.8 |
| 20260508003025 | 71 | 89 | 0.0 | 7.0 | 0.00 | 0.00 | 0.00 | 14 | 1017.8 |
| 20260508001526 | 72 | 63 | 2.0 | 5.0 | 0.00 | 0.00 | 0.00 | 13 | 1017.8 |
| 20260508000024 | 72 | 81 | 0.0 | 17.0 | 0.00 | 0.00 | 0.00 | 14 | 1017.9 |
| 20260507234522 | 72 | 72 | 9.0 | 17.0 | 0.00 | 0.00 | 0.00 | 13 | 1017.9 |
| 20260507233027 | 72 | 70 | 8.0 | 16.0 | 0.00 | 0.00 | 0.00 | 12 | 1018.0 |
| 20260507231514 | 72 | 44 | 13.0 | 18.0 | 0.00 | 0.00 | 0.00 | 11 | 1018.0 |
| 20260507230028 | 73 | 87 | 13.0 | 18.0 | 0.00 | 0.00 | 0.00 | 13 | 1018.1 |
| 20260507224508 | 73 | 127 | 9.0 | 18.0 | 0.00 | 0.00 | 0.00 | 13 | 1018.0 |
| 20260507223008 | 72 | 64 | 0.0 | 15.0 | 0.00 | 0.00 | 0.00 | 12 | 1018.1 |
| 20260507221507 | 73 | 98 | 8.0 | 19.0 | 0.00 | 0.00 | 0.00 | 11 | 1018.1 |
| 20260507220005 | 73 | 105 | 6.0 | 17.0 | 0.00 | 0.00 | 0.00 | 14 | 1018.2 |
| 20260507214503 | 72 | 148 | 1.0 | 13.0 | 0.00 | 0.00 | 0.00 | 15 | 1018.4 |